Regional Weather Roundup
Issued by NWS Huntsville, AL

Home | Current Version | Previous Version | Text Only | Print | Product List | Glossary On
Versions: 1 2 3 4 5 6 7 8 9 10 11 12 13 14 15 16 17 18 19 20 21 22 23 24 25 26 27 28 29 30 31 32 33 34 35 36 37 38 39 40 41 42 43 44 45 46 47 48 49 50
000
ASUS44 KHUN 020110
RWRHUN

WEATHER ROUNDUP FOR THE TENNESSEE VALLEY
NATIONAL WEATHER SERVICE HUNTSVILLE AL
700 PM CST SUN MAR 01 2015

ALZ001>004-020200-
NORTHWEST ALABAMA

CITY           SKY/WX    TMP DP  RH WIND       PRES   REMARKS
COURTLAND HCN    N/A     52 N/A N/A S7          N/A
RUSSELLVILLE     N/A     52 N/A N/A MISG        N/A
SHOALS AIRPORT LGT RAIN  52  50  93 SE6       30.30S
SHOALS TVA RES   N/A     52 N/A N/A MISG        N/A
$$

ALZ005>007-016-020200-
NORTH CENTRAL ALABAMA

CITY           SKY/WX    TMP DP  RH WIND       PRES   REMARKS
CULLMAN AG STN   N/A     50 N/A N/A E3          N/A
DECATUR AP     LGT RAIN  51  50  96 SE7       30.30F FOG
HUNTSVILLE AP  LGT RAIN  51  48  89 E7        30.31F FOG
HUN NWS/UAH      N/A     49  47  92 SE3         N/A
MERIDIANVILLE  CLOUDY    46  43  87 SE5       30.32F FOG
REDSTONE ARSN  CLOUDY    49  48  95 SE6       30.31F
VINEMONT AP    MOCLDY    49  48  99 CALM      30.33S FOG
$$

ALZ008>010-020200-
NORTHEAST ALABAMA

CITY           SKY/WX    TMP DP  RH WIND       PRES   REMARKS
ALBERTVILLE    CLOUDY    46  46 100 CALM      30.32F
FORT PAYNE     CLOUDY    46  41  81 CALM      30.35S
SCOTTSBORO AP  CLOUDY    48  48 100 CALM      30.36S FOG
SCOTTSBORO HCN   N/A     48 N/A N/A MISG        N/A
VALLEY HEAD      N/A     46 N/A N/A MISG        N/A
$$

TNZ076-096-097-020200-
SOUTHEASTERN MIDDLE TENNESSEE

CITY           SKY/WX    TMP DP  RH WIND       PRES   REMARKS
TULLAHOMA      CLOUDY    48  46  93 S3        30.32S
WINCHESTER     CLOUDY    46  46 100 SE6       30.33S
$$

...SURROUNDING SITES...

CITY           SKY/WX    TMP DP  RH WIND       PRES   REMARKS
ATLANTA        FOG       45  43  93 S7        30.37S VSB 3/4
ANNISTON       CLOUDY    52  45  77 NE6       30.35S
BIRMINGHAM     CLOUDY    56  49  77 SE7       30.33S
CHATTANOOGA    CLOUDY    48  44  86 S5        30.36S FOG
CORINTH        RAIN      52  50  93 CALM      30.31R
DALTON         CLOUDY    45  45 100 SW3       30.36R FOG
GADSDEN        CLOUDY    48  43  81 NE3       30.33S
GOLDEN TRNGL   NOT AVBL
HALEYVILLE       N/A     50  50 100 CALM      30.33R FOG
JACKSON TN     CLOUDY    43  41  93 NW7       30.33R FOG
LEWISBURG      CLOUDY    49  48  96 S5        30.30S
MEMPHIS        LGT RAIN  42  40  92 N7        30.34R VSB 1
MURFREESBORO   CLOUDY    50  49  96 S3        30.31R
NASHVILLE      CLOUDY    49  49 100 S3        30.31R FOG
OXFORD MS      CLOUDY    50  50 100 N5        30.33R FOG
ROME           CLOUDY    47  46  97 N3        30.35R
SAVANNAH       CLOUDY    50  50 100 CALM      30.32R
TUPELO         LGT RAIN  53  50  89 SW5       30.31R FOG
TUSCALOOSA     LGT RAIN  56  52  86 NE3       30.33S
$$

...GULF COAST WEATHER...

CITY           SKY/WX    TMP DP  RH WIND       PRES   REMARKS
GULFPORT       CLOUDY    61  59  93 E7        30.29R FOG
PASCAGOULA     CLOUDY    59  57  93 NE6       30.31R FOG
MOBILE         CLOUDY    58  56  93 E6        30.32R
GULF SHORES    FOG       57  57 100 E5        30.31S VSB 1/2
PENSACOLA      CLOUDY    59  56  89 NE6       30.31S
DESTIN         CLOUDY    58  55  90 NE6       30.34R
APPALACHICOLA  CLOUDY    63  59  87 NE6       30.33R FOG
$$



USA.gov is the U.S. government's official web portal to all federal, state and local government web resources and services.